This is the latest recevied weather packets stored in our database for station/object AD0YN. If no packets are shown the sender has not sent any weather packets the latest 10 day(s).
| Time | Temp. | Humidity | Pressure | Rain* | Wind** | Luminosity | Snow |
|---|---|---|---|---|---|---|---|
| 1778095308 | 15° C | 32% | 1017.5 hPa | 0 mm | - | 648 W/m² | - |
| 1778095006 | 15° C | 35% | 1017.9 hPa | 0 mm | - | 758 W/m² | - |
| 1778094701 | 15° C | 32% | 1017.7 hPa | 0 mm | - | 455 W/m² | - |
| 1778094399 | 15° C | 31% | 1017.9 hPa | 0 mm | - | 996 W/m² | - |
| 1778094095 | 15° C | 33% | 1018 hPa | 0 mm | - | 1020 W/m² | - |
| 1778093793 | 13.89° C | 34% | 1018.1 hPa | 0 mm | - | 486 W/m² | - |
| 1778093489 | 13.89° C | 32% | 1018.1 hPa | 0 mm | - | 461 W/m² | - |
| 1778093186 | 14.44° C | 30% | 1018.1 hPa | 0 mm | - | 436 W/m² | - |
| 1778092883 | 13.89° C | 33% | 1017.9 hPa | 0 mm | - | 449 W/m² | - |
| 1778092580 | 14.44° C | 34% | 1018 hPa | 0 mm | - | 435 W/m² | - |
| 1778092276 | 13.89° C | 37% | 1017.9 hPa | 0 mm | - | 521 W/m² | - |
| 1778091974 | 13.89° C | 38% | 1018.1 hPa | 0 mm | - | 598 W/m² | - |
| 1778091671 | 13.89° C | 33% | 1018.1 hPa | 0 mm | - | 452 W/m² | - |
| 1778091368 | 13.89° C | 32% | 1018.1 hPa | 0 mm | - | 489 W/m² | - |
| 1778091065 | 13.89° C | 37% | 1018.1 hPa | 0 mm | - | 461 W/m² | - |
| 1778090762 | 13.89° C | 31% | 1018.3 hPa | 0 mm | - | 413 W/m² | - |
| 1778090459 | 13.89° C | 33% | 1018.2 hPa | 0 mm | - | 415 W/m² | - |
| 1778090155 | 14.44° C | 36% | 1018 hPa | 0 mm | - | 642 W/m² | - |
| 1778089851 | 14.44° C | 36% | 1018.2 hPa | 0 mm | - | 464 W/m² | - |
| 1778089550 | 14.44° C | 36% | 1018.2 hPa | 0 mm | - | 494 W/m² | - |
| 1778089246 | 14.44° C | 35% | 1018.2 hPa | 0 mm | - | 527 W/m² | - |
| 1778088944 | 14.44° C | 32% | 1018 hPa | 0 mm | - | 698 W/m² | - |
| 1778088640 | 14.44° C | 35% | 1018.1 hPa | 0 mm | - | 598 W/m² | - |
| 1778088338 | 14.44° C | 31% | 1018.3 hPa | 0 mm | - | 563 W/m² | - |
| 1778088033 | 15° C | 32% | 1018.3 hPa | 0 mm | - | 578 W/m² | - |
* Rain latest hour (hover to see other rain measurements)
** Current wind speed in m/s (hover to see current wind gust speed)